Regional Weather Roundup
Issued by NWS

Home | Current Version | Previous Version | Text Only | Print | Product List | Glossary Off
Versions: 1 2 3 4 5 6 7 8 9 10 11 12 13 14 15 16 17 18 19 20 21 22 23 24 25 26 27 28 29 30 31 32 33 34 35 36 37 38 39 40 41 42 43 44 45 46 47 48 49 50

000
ASUS43 KBIS 260620
RWRND

NORTH DAKOTA REGIONAL WEATHER ROUNDUP
NATIONAL WEATHER SERVICE BISMARCK ND
1200 AM CST FRI DEC 26 2014

NOTE: "FAIR" INDICATES FEW OR NO CLOUDS BELOW 12,000 FEET WITH NO
SIGNIFICANT WEATHER AND/OR OBSTRUCTIONS TO VISIBILITY.


NDZ001>003-009>011-017-260700-
NORTHWEST NORTH DAKOTA

CITY           SKY/WX    TMP DP  RH WIND       PRES   REMARKS
WILLISTON      CLOUDY    16  11  80 NW8       30.11R WCI   5
6HR MIN TEMP:  16; 6HR MAX TEMP:  22;

MINOT          CLOUDY    15   7  70 W15       30.07R WCI   0
MINOT AFB      CLOUDY    12   8  81 NW17G26   30.07R WCI  -5
$$

NDZ018>021-031>035-040>046-260700-
SOUTHWEST NORTH DAKOTA

CITY           SKY/WX    TMP DP  RH WIND       PRES   REMARKS
BISMARCK       CLOUDY    25  19  78 N10       30.04R WCI  15
6HR MIN TEMP:  25; 6HR MAX TEMP:  27;

DICKINSON      CLOUDY    20  14  77 NW10      30.01R WCI   9
GARRISON         N/A     19  14  81 N17       30.04R WCI   4
6HR MIN TEMP:  19; 6HR MAX TEMP:  25;

HETTINGER ARPT CLOUDY    22  16  78 NW10      30.02R WCI  11
$$

NDZ004>008-012>016-024-026-027-054-260700-
NORTHEAST NORTH DAKOTA

CITY           SKY/WX    TMP DP  RH WIND       PRES   REMARKS
GRAND FORKS    CLOUDY    25  21  85 N9        30.02R WCI  15
GRND FRKS AFB  CLOUDY    25  24  96 N8        30.02S WCI  17
DEVILS LAKE    CLOUDY    21  16  79 NW16      30.02R WCI   7
$$

NDZ022-023-025-028>030-036>039-047>053-260700-
SOUTHEAST NORTH DAKOTA

CITY           SKY/WX    TMP DP  RH WIND       PRES   REMARKS
FARGO          CLOUDY    27  21  78 N12       30.00R WCI  17
6HR MIN TEMP:  27; 6HR MAX TEMP:  29;

JAMESTOWN      CLOUDY    24  20  84 N9        29.99R WCI  14
$$




USA.gov is the U.S. government's official web portal to all federal, state and local government web resources and services.